EW7419 Weather Reports


time (UTC)temp
F
wind
direction
speed
knots
gust
knots
rain 1hr
in
rain 24hr
in
rain mn
in
humidity
%
barometer
mb
20260502164024 62 174 5.2 11.3 0.00 0.00 0.00 29 1022.0
20260502163525 62 187 5.2 11.3 0.00 0.00 0.00 31 1021.8
20260502163046 62 159 6.1 12.2 0.00 0.00 0.00 31 1021.7
20260502162524 61 149 7.8 12.2 0.00 0.00 0.00 32 1021.7
20260502162024 61 205 6.1 11.3 0.00 0.00 0.00 34 1021.8
20260502161546 61 198 6.1 11.3 0.00 0.00 0.00 33 1021.9
20260502161024 61 174 6.1 13.0 0.00 0.00 0.00 35 1022.0
20260502160524 61 147 6.1 13.0 0.00 0.00 0.00 36 1021.9
20260502152026 58 140 6.1 8.7 0.00 0.00 0.00 38 1022.2
20260502151600 58 187 3.5 9.6 0.00 0.00 0.00 37 1022.1
20260502151023 58 163 5.2 9.6 0.00 0.00 0.00 37 1022.2
20260502150524 58 150 2.6 7.0 0.00 0.00 0.00 38 1022.2
20260502130524 48 198 0.9 4.3 0.00 0.00 0.00 53 1021.7
20260502123523 44 0 0.0 1.7 0.00 0.00 0.00 61 1021.7
20260502123044 45 0 0.0 1.7 0.00 0.00 0.00 62 1021.6
20260502122524 45 0 0.0 0.9 0.00 0.00 0.00 62 1021.5
20260502122027 45 0 0.0 0.0 0.00 0.00 0.00 62 1021.6
20260502121543 46 0 0.0 0.0 0.00 0.00 0.00 62 1021.6
20260502121026 46 0 0.0 0.0 0.00 0.00 0.00 62 1021.6
20260502120524 46 0 0.0 1.7 0.00 0.00 0.00 61 1021.5
20260502115523 47 0 0.0 3.5 0.00 0.00 0.00 61 1021.3
20260502115026 47 0 0.0 2.6 0.00 0.00 0.00 61 1021.5
20260502114544 47 0 0.0 4.3 0.00 0.00 0.00 60 1021.5
20260502114023 48 0 0.0 4.3 0.00 0.00 0.00 60 1021.4
20260502113524 48 0 0.9 5.2 0.00 0.00 0.00 60 1021.3
20260502113049 49 190 1.7 7.0 0.00 0.00 0.00 60 1021.4
20260502112522 49 200 1.7 7.8 0.00 0.00 0.00 61 1021.3
20260502112024 49 203 2.6 7.8 0.00 0.00 0.00 61 1021.4
20260502111544 50 182 3.5 8.7 0.00 0.00 0.00 60 1021.3
20260502111023 50 205 4.3 10.4 0.00 0.00 0.00 59 1021.4
20260502110524 50 195 4.3 10.4 0.00 0.00 0.00 57 1021.2
20260502110051 50 192 2.6 7.8 0.00 0.00 0.00 55 1021.4
20260502105527 50 215 1.7 7.8 0.00 0.00 0.00 52 1021.3
20260502105026 50 182 2.6 7.8 0.00 0.00 0.00 51 1021.3
20260502104544 50 181 3.5 7.0 0.00 0.00 0.00 50 1021.4
20260502104024 50 188 2.6 6.1 0.00 0.00 0.00 50 1021.4
20260502103525 50 182 2.6 6.1 0.00 0.00 0.00 50 1021.4
20260502103043 50 197 1.7 6.1 0.00 0.00 0.00 50 1021.3
20260502102523 50 196 1.7 6.1 0.00 0.00 0.00 51 1021.3
20260502102024 50 188 1.7 5.2 0.00 0.00 0.00 52 1021.3
20260502101543 50 0 0.9 5.2 0.00 0.00 0.00 51 1021.2
20260502101023 49 196 0.0 5.2 0.00 0.00 0.00 50 1021.2
20260502100523 49 195 0.9 5.2 0.00 0.00 0.00 50 1021.1
20260502091024 43 0 0.0 0.0 0.00 0.00 0.00 58 1021.2
20260502090523 43 0 0.0 0.0 0.00 0.00 0.00 58 1021.2
20260502071024 43 0 0.0 0.0 0.00 0.00 0.00 60 1021.4
20260502070524 43 0 0.0 0.0 0.00 0.00 0.00 61 1021.5
20260502070045 43 0 0.0 0.0 0.00 0.00 0.00 63 1021.6
20260502065524 43 0 0.0 0.0 0.00 0.00 0.00 62 1021.5
20260502065023 44 0 0.0 0.9 0.00 0.00 0.00 61 1021.5
20260502064556 44 0 0.0 0.9 0.00 0.00 0.00 60 1021.7
20260502064025 44 0 0.0 0.9 0.00 0.00 0.00 61 1021.6
20260502063527 44 0 0.0 0.0 0.00 0.00 0.00 61 1021.6
20260502063041 44 0 0.0 0.0 0.00 0.00 0.00 59 1021.6
20260502062527 44 0 0.0 0.0 0.00 0.00 0.00 58 1021.5
20260502062023 44 0 0.0 0.0 0.00 0.00 0.00 58 1021.5
20260502061539 45 0 0.0 0.0 0.00 0.00 0.00 58 1021.6
20260502061023 45 0 0.0 0.0 0.00 0.00 0.00 56 1021.5
20260502060522 46 0 0.0 0.0 0.00 0.00 0.00 55 1021.3
20260502060039 46 0 0.0 0.0 0.00 0.00 0.00 52 1021.2
20260502055524 46 0 0.0 1.7 0.00 0.00 0.00 53 1021.3
20260502055024 46 0 0.0 1.7 0.00 0.00 0.00 52 1021.2
20260502054554 46 286 0.0 1.7 0.00 0.00 0.00 52 1021.3
20260502054025 46 0 0.0 0.9 0.00 0.00 0.00 52 1021.3
20260502053522 46 0 0.0 0.9 0.00 0.00 0.00 52 1021.3
20260502053046 46 0 0.0 0.9 0.00 0.00 0.00 54 1021.1
20260502052528 47 0 0.0 0.0 0.00 0.00 0.00 52 1021.3
20260502052024 47 0 0.0 0.0 0.00 0.00 0.00 50 1021.3
20260502051544 47 0 0.0 0.0 0.00 0.00 0.00 51 1021.2
20260502051024 47 0 0.0 0.0 0.00 0.00 0.00 50 1021.3
20260502050526 47 0 0.0 0.0 0.00 0.00 0.00 49 1021.2
20260502050044 48 0 0.0 0.0 0.00 0.00 0.00 51 1021.2
20260502045523 48 0 0.0 0.0 0.00 0.00 0.00 49 1021.3
20260502045024 48 0 0.0 0.0 0.00 0.00 0.00 48 1021.3
20260502044540 49 0 0.0 0.0 0.00 0.00 0.00 47 1021.2
20260502044025 49 0 0.0 0.0 0.00 0.00 0.00 47 1021.3
20260502043524 50 0 0.0 0.0 0.00 0.00 0.00 44 1021.3
20260502043036 50 0 0.0 0.0 0.00 0.00 0.00 43 1021.5
20260502042524 51 0 0.0 1.7 0.00 0.00 0.00 43 1021.3
20260502042024 51 0 0.0 1.7 0.00 0.00 0.00 42 1021.3
20260502041545 51 0 0.0 1.7 0.00 0.00 0.00 42 1021.3
20260502041023 51 0 0.0 1.7 0.00 0.00 0.00 41 1021.3
20260502040523 52 0 0.0 1.7 0.00 0.00 0.00 41 1021.3
20260502040054 52 0 0.0 1.7 0.00 0.00 0.00 43 1021.2
20260502035523 52 286 0.0 0.9 0.00 0.00 0.00 41 1021.1
20260502035023 52 0 0.0 0.9 0.00 0.00 0.00 40 1021.1
20260502034540 53 0 0.0 1.7 0.00 0.00 0.00 38 1021.0
20260502034022 53 0 0.0 2.6 0.00 0.00 0.00 37 1020.9
20260502033522 53 0 0.0 2.6 0.00 0.00 0.00 38 1020.9
20260502033039 54 0 0.0 2.6 0.00 0.00 0.00 38 1021.0
20260502032523 54 0 0.0 2.6 0.00 0.00 0.00 37 1020.7
20260502032025 55 286 0.0 2.6 0.00 0.00 0.00 36 1020.4
20260502031544 55 0 0.0 2.6 0.00 0.00 0.00 35 1020.4
20260502031024 56 286 0.0 2.6 0.00 0.00 0.00 35 1020.3
20260502030524 56 0 0.9 2.6 0.00 0.00 0.00 35 1020.2
20260502030045 56 0 0.0 0.9 0.00 0.00 0.00 34 1020.2
20260502025525 57 0 0.0 2.6 0.00 0.00 0.00 33 1020.1
20260502025023 57 0 0.0 3.5 0.00 0.00 0.00 33 1020.2
20260502024545 58 0 0.0 3.5 0.00 0.00 0.00 32 1020.2
20260502024023 58 0 0.0 3.5 0.00 0.00 0.00 32 1020.3
20260502023523 59 0 0.0 1.7 0.00 0.00 0.00 31 1020.2
20260502023050 59 0 0.0 1.7 0.00 0.00 0.00 30 1020.1
20260502022524 59 288 0.0 2.6 0.00 0.00 0.00 29 1020.1
20260502022022 60 0 0.0 2.6 0.00 0.00 0.00 29 1019.9
20260502021539 60 0 0.9 3.5 0.00 0.00 0.00 28 1020.0
20260502021023 60 0 0.9 3.5 0.00 0.00 0.00 28 1019.9
20260502020523 61 296 0.0 5.2 0.00 0.00 0.00 28 1019.9
20260502020048 61 302 0.9 5.2 0.00 0.00 0.00 27 1019.9
20260502015523 62 286 1.7 7.8 0.00 0.00 0.00 26 1019.9
20260502015022 62 296 2.6 7.8 0.00 0.00 0.00 26 1019.8
20260502014551 62 295 1.7 7.8 0.00 0.00 0.00 27 1019.9
20260502014023 63 0 1.7 7.8 0.00 0.00 0.00 27 1019.8
20260502013523 63 297 1.7 7.8 0.00 0.00 0.00 27 1019.8
20260502013044 64 320 0.9 7.0 0.00 0.00 0.00 27 1019.9
20260502012524 63 281 0.9 7.0 0.00 0.00 0.00 27 1019.8
20260502012024 63 0 0.9 9.6 0.00 0.00 0.00 26 1019.7
20260502011546 64 312 1.7 9.6 0.00 0.00 0.00 26 1019.7
20260502011023 64 308 3.5 9.6 0.00 0.00 0.00 26 1019.8
20260502010522 64 316 1.7 5.2 0.00 0.00 0.00 27 1019.8
20260502010042 64 5 0.9 9.6 0.00 0.00 0.00 27 1019.8
20260502005524 64 308 3.5 9.6 0.00 0.00 0.00 26 1019.7
20260502005023 64 9 1.7 8.7 0.00 0.00 0.00 26 1019.8
20260502004550 64 300 2.6 7.8 0.00 0.00 0.00 26 1019.8
20260502004023 64 22 1.7 8.7 0.00 0.00 0.00 26 1019.7
20260502003524 65 360 4.3 8.7 0.00 0.00 0.00 26 1019.7
20260502003046 65 28 1.7 7.8 0.00 0.00 0.00 27 1019.8
20260502002522 65 289 1.7 8.7 0.00 0.00 0.00 26 1019.8
20260502002024 65 12 1.7 8.7 0.00 0.00 0.00 25 1019.7
20260502001622 65 5 2.6 8.7 0.00 0.00 0.00 25 1019.9
20260502001025 65 316 2.6 8.7 0.00 0.00 0.00 26 1019.9
20260502000524 65 360 2.6 9.6 0.00 0.00 0.00 26 1020.0
20260502000044 65 5 2.6 9.6 0.00 0.00 0.00 26 1019.9
20260501235526 65 292 1.7 10.4 0.00 0.00 0.00 26 1020.0
20260501235025 65 296 2.6 10.4 0.00 0.00 0.00 26 1019.9
20260501234540 65 288 4.3 9.6 0.00 0.00 0.00 26 1019.9
20260501234025 66 39 2.6 12.2 0.00 0.00 0.00 25 1019.9
20260501233527 66 329 4.3 12.2 0.00 0.00 0.00 26 1019.9
20260501233039 66 287 3.5 9.6 0.00 0.00 0.00 24 1020.0
20260501232528 66 297 2.6 9.6 0.00 0.00 0.00 25 1020.0
20260501232028 66 271 1.7 9.6 0.00 0.00 0.00 24 1019.9
20260501231545 66 26 2.6 9.6 0.00 0.00 0.00 25 1019.9
20260501231025 66 13 2.6 7.8 0.00 0.00 0.00 26 1019.9
20260501230528 66 38 3.5 7.8 0.00 0.00 0.00 24 1019.9
20260501230044 66 294 2.6 7.8 0.00 0.00 0.00 24 1020.1
20260501225525 66 0 2.6 7.8 0.00 0.00 0.00 25 1019.9
20260501225024 66 9 1.7 7.0 0.00 0.00 0.00 24 1019.9
20260501224556 66 306 0.9 8.7 0.00 0.00 0.00 24 1020.0
20260501224028 65 346 0.9 8.7 0.00 0.00 0.00 24 1019.9
20260501223524 65 30 4.3 12.2 0.00 0.00 0.00 25 1020.1
20260501223043 65 9 1.7 12.2 0.00 0.00 0.00 25 1020.0
20260501222524 65 10 4.3 11.3 0.00 0.00 0.00 23 1019.9
20260501222025 66 81 2.6 7.8 0.00 0.00 0.00 23 1020.0
20260501221546 65 36 1.7 7.0 0.00 0.00 0.00 23 1020.0
20260501221025 65 31 3.5 10.4 0.00 0.00 0.00 23 1020.1
20260501220526 65 69 4.3 10.4 0.00 0.00 0.00 23 1020.3
20260501220050 65 5 4.3 10.4 0.00 0.00 0.00 23 1020.2
20260501215523 66 352 4.3 10.4 0.00 0.00 0.00 23 1020.5
20260501215023 66 9 1.7 7.8 0.00 0.00 0.00 25 1020.3
20260501214545 66 352 2.6 7.8 0.00 0.00 0.00 24 1020.7
20260501214023 65 9 2.6 7.8 0.00 0.00 0.00 25 1020.5
20260501213524 65 34 2.6 8.7 0.00 0.00 0.00 24 1020.4
20260501213048 65 262 2.6 8.7 0.00 0.00 0.00 24 1020.4
20260501212525 65 46 1.7 8.7 0.00 0.00 0.00 25 1020.5
20260501212023 65 17 1.7 9.6 0.00 0.00 0.00 23 1020.6
20260501211542 65 68 3.5 11.3 0.00 0.00 0.00 24 1020.4
20260501211024 65 71 4.3 11.3 0.00 0.00 0.00 24 1020.4
20260501210523 65 45 1.7 9.6 0.00 0.00 0.00 26 1020.4
20260501210052 65 18 2.6 9.6 0.00 0.00 0.00 25 1020.4
20260501205523 64 5 5.2 9.6 0.00 0.00 0.00 26 1020.4
20260501205027 64 360 2.6 8.7 0.00 0.00 0.00 25 1020.5
20260501204547 64 0 3.5 8.7 0.00 0.00 0.00 24 1020.6
20260501204024 64 349 0.9 6.1 0.00 0.00 0.00 25 1020.7
20260501203523 64 295 2.6 7.0 0.00 0.00 0.00 25 1020.7
20260501203039 64 213 2.6 7.8 0.00 0.00 0.00 24 1020.8
20260501202521 64 5 1.7 7.8 0.00 0.00 0.00 24 1020.7
20260501202022 63 140 0.0 7.8 0.00 0.00 0.00 24 1020.7
20260501201546 63 0 3.5 7.8 0.00 0.00 0.00 24 1020.7
20260501201022 64 95 2.6 6.1 0.00 0.00 0.00 23 1020.7
20260501200523 64 65 1.7 9.6 0.00 0.00 0.00 25 1020.9
20260501200044 64 34 3.5 9.6 0.00 0.00 0.00 25 1020.9
20260501195523 64 15 1.7 8.7 0.00 0.00 0.00 26 1020.9
20260501195027 64 42 2.6 8.7 0.00 0.00 0.00 25 1021.0
20260501194540 63 5 2.6 7.8 0.00 0.00 0.00 26 1020.9
20260501194024 63 0 1.7 9.6 0.00 0.00 0.00 24 1020.9
20260501193523 63 17 2.6 9.6 0.00 0.00 0.00 25 1020.8
20260501193039 62 71 1.7 8.7 0.00 0.00 0.00 25 1020.9
20260501192523 62 283 1.7 11.3 0.00 0.00 0.00 24 1021.0
20260501192022 63 346 0.9 11.3 0.00 0.00 0.00 24 1021.0
20260501191538 63 302 2.6 11.3 0.00 0.00 0.00 26 1021.0
20260501191023 62 265 2.6 11.3 0.00 0.00 0.00 25 1020.9
20260501190526 62 5 3.5 11.3 0.00 0.00 0.00 23 1021.1
20260501190046 62 352 2.6 7.0 0.00 0.00 0.00 23 1021.3
20260501185523 62 0 1.7 8.7 0.00 0.00 0.00 24 1021.3
20260501185024 62 67 3.5 8.7 0.00 0.00 0.00 25 1021.2
20260501184545 62 30 2.6 8.7 0.00 0.00 0.00 26 1021.2
20260501184024 62 292 1.7 8.7 0.00 0.00 0.00 28 1021.3
20260501183526 61 294 2.6 8.7 0.00 0.00 0.00 27 1021.3
20260501183046 62 297 2.6 8.7 0.00 0.00 0.00 26 1021.3
20260501182523 62 311 2.6 8.7 0.00 0.00 0.00 26 1021.5
20260501182022 62 308 2.6 6.1 0.00 0.00 0.00 25 1021.5
20260501181543 62 278 2.6 8.7 0.00 0.00 0.00 26 1021.4
20260501181023 62 344 1.7 8.7 0.00 0.00 0.00 25 1021.5
20260501180523 62 15 2.6 8.7 0.00 0.00 0.00 25 1021.7
20260501180044 62 15 0.9 7.8 0.00 0.00 0.00 24 1021.5
20260501175523 61 34 2.6 7.8 0.00 0.00 0.00 26 1021.3
20260501175023 61 302 2.6 8.7 0.00 0.00 0.00 25 1021.5
20260501174546 61 42 2.6 8.7 0.00 0.00 0.00 28 1021.5
20260501174023 61 118 0.9 7.8 0.00 0.00 0.00 29 1021.6
20260501173524 61 0 0.9 6.1 0.00 0.00 0.00 30 1021.6
20260501173045 61 12 1.7 6.1 0.00 0.00 0.00 31 1021.6
20260501172521 60 292 2.6 6.1 0.00 0.00 0.00 31 1021.7
20260501172023 59 0 0.9 7.8 0.00 0.00 0.00 32 1021.7
20260501171542 59 309 1.7 7.8 0.00 0.00 0.00 30 1021.8
20260501171021 59 284 1.7 5.2 0.00 0.00 0.00 32 1021.8
20260501170523 59 33 2.6 5.2 0.00 0.00 0.00 31 1021.9
20260501170047 59 0 1.7 7.0 0.00 0.00 0.00 32 1021.9